sat.trackr.live / text

‹ back to catalog

STARLINK-30142

NORAD 56836 · 2023-079P

PAYLOAD ACTIVE UNKNOWN

§ Identity

Operator
Country
US
Launch date
2023-06-04
Launch site
AFETR
Launch vehicle
Mass (kg)
RCS (m²)

Purposes: comms

External: N2YO · Heavens-Above · Gunter

§ Orbital elements

Epoch: 2026-05-25T01:03:01.029024Z

Period
94.27 min
Inclination
43.0002°
Eccentricity
0.0001147
Mean motion
15.27586829 rev/d
Perigee alt
482.2 km
Apogee alt
483.8 km
Semi-major
6,861.2 km
B*
8.3173e-5
RAAN
32.6004°
Arg perigee
273.2761°
Mean anomaly
86.7959°
Rev number
16,460

§ Raw data

STARLINK-301421 56836U 23079P   26145.04376191  .00002028  00000+0  83173-4 0  99952 56836  43.0002  32.6004 0001147 273.2761  86.7959 15.27586829164609

JSON: /api/v1/satellites/56836 · /tle

For live sub-satellite position, see the globe view (requires WebGL).

§ Visibility from observer

Set your observer location to see the next 7 days of passes ≥ 10°. The values pass through the URL so the page stays shareable.

No JS? Fill the form by hand. The geolocation button needs JavaScript.